SCP
0 0 0 0 0 0 0 0 0 0 0 0 0 0 0 0 0 0 0 0 0 0 0 0 0 0 0 0 0 0 0 0 0 0 0 0 0 0 0 0 0 0 0 0 0 0 0 0 0
0 0 0 0 0 0 0 0 0 0 0 0 0 0 0 0 0 0 0 0 0 0 0 0 0 0 0 0 0 0 0 0 0 0 0 0 0 0 0 0 0 0 0 0 0 0 0 0 0
0 0 0 0 0 0 0 0 0 0 0 0 0 0 0 0 0 0 0 0 0 0 0 0 0 0 0 0 0 0 0 0 0 0 0 0 0 0 0 0 0 0 0 0 0 0 0 0 0
0 0 0 0 0 0 0 0 0 0 0 0 0 0 0 0 0 0 0 0 0 0 0 0 0 0 0 0 0 0 0 0 0 0 0 0 0 0 0 0 0 0 0 0 0 0 0 0 0
0 0 0 0 0 0 0 0 0 0 0 0 0 0 0 0 0 0 0 0 0 0 0 0 0 0 0 0 0 0 0 0 0 0 0 0 0 0 0 0 0 0 0 0 0 0 0 0 0
0 0 0 0 0 0 0 0 0 0 0 0 0 0 0 0 0 0 0 0 0 0 0 0 0 0 0 0 0 0 0 0 0 0 0 0 0 0 0 0 0 0 0 0 0 0 0 0 0
0 0 0 0 0 0 0 0 0 0 0 0 0 0 0 0 0 0 0 0 0 0 0 0 0 0 0 0 0 0 0 0 0 0 0 0 0 0 0 0 0 0 0 0 0 0 0 0 0
0 0 0 0 0 0 0 0 0 0 0 0 0 0 0 0 0 0 0 0 0 0 0 0 0 0 0 0 0 0 0 0 0 0 0 0 0 0 0 0 0 0 0 0 0 0 0 0 0
0 0 0 0 0 0 0 0 0 0 0 0 0 0 0 0 0 0 0 0 0 0 0 0 0 0 0 0 0 0 0 0 0 0 0 0 0 0 0 0 0 0 0 0 0 0 0 0 0
0 0 0 0 0 0 0 0 0 0 0 0 0 0 0 0 0 0 0 0 0 0 0 0 0 0 0 0 0 0 0 0 0 0 0 0 0 0 0 0 0 0 0 0 0 0 0 0 0
0 0 0 0 0 0 0 0 0 0 0 0 0 0 0 0 0 0 0 0 0 0 0 0 0 0 0 0 0 0 0 0 0 0 0 0 0 0 0 0 0 0 0 0 0 0 0 0 0
0 0 0 0 0 0 0 0 0 0 0 0 0 0 0 0 0 0 0 0 0 0 0 0 0 0 0 0 0 0 0 0 0 0 0 0 0 0 0 0 0 0 0 0 0 0 0 0 0
0 0 0 0 0 0 0 0 0 0 0 0 0 0 0 0 0 0 0 0 0 0 0 0 0 0 0 0 0 0 0 0 0 0 0 0 0 0 0 0 0 0 0 0 0 0 0 0 0
0 0 0 0 0 0 0 0 0 0 0 0 0 0 0 0 0 0 0 0 0 0 0 0 0 0 0 0 0 0 0 0 0 0 0 0 0 0 0 0 0 0 0 0 0 0 0 0 0
0 0 0 0 0 0 0 0 0 0 0 0 0 0 0 0 0 0 0 0 0 0 0 0 0 0 0 0 0 0 0 0 0 0 0 0 0 0 0 0 0 0 0 0 0 0 0 0 0
0 0 0 0 0 0 0 0 0 0 0 0 0 0 0 0 0 0 0 0 0 0 0 0 0 0 0 0 0 0 0 0 0 0 0 0 0 0 0 0 0 0 0 0 0 0 0 0 0
0 0 0 0 0 0 0 0 0 0 0 0 0 0 0 0 0 0 0 0 0 0 0 0 0 0 0 0 0 0 0 0 0 0 0 0 0 0 0 0 0 0 0 0 0 0 0 0 0
0 0 0 0 0 0 0 0 0 0 0 0 0 0 0 0 0 0 0 0 0 0 0 0 0 0 0 0 0 0 0 0 0 0 0 0 0 0 0 0 0 0 0 0 0 0 0 0 0
0 0 0 0 0 0 0 0 0 0 0 0 0 0 0 0 0 0 0 0 0 0 0 0 0 0 0 0 0 0 0 0 0 0 0 0 0 0 0 0 0 0 0 0 0 0 0 0 0
0 0 0 0 0 0 0 0 0 0 0 0 0 0 0 0 0 0 0 0 0 0 0 0 0 0 0 0 0 0 0 0 0 0 0 0 0 0 0 0 0 0 0 0 0 0 0 0 0
0 0 0 0 0 0 0 0 0 0 0 0 0 0 0 0 0 0 0 0 0 0 0 0 0 0 0 0 0 0 0 0 0 0 0 0 0 0 0 0 0 0 0 0 0 0 0 0 0
0 0 0 0 0 0 0 0 0 0 0 0 0 0 0 0 0 0 0 0 0 0 0 0 0 0 0 0 0 0 0 0 0 0 0 0 0 0 0 0 0 0 0 0 0 0 0 0 0
0 0 0 0 0 0 0 0 0 0 0 0 0 0 0 0 0 0 0 0 0 0 0 0 0 0 0 0 0 0 0 0 0 0 0 0 0 0 0 0 0 0 0 0 0 0 0 0 0
0 0 0 0 0 0 0 0 0 0 0 0 0 0 0 0 0 0 0 0 0 0 0 0 0 0 0 0 0 0 0 0 0 0 0 0 0 0 0 0 0 0 0 0 0 0 0 0 0
0 0 0 0 0 0 0 0 0 0 0 0 0 0 0 0 0 0 0 0 0 0 0 0 0 0 0 0 0 0 0 0 0 0 0 0 0 0 0 0 0 0 0 0 0 0 0 0 0
0 0 0 0 0 0 0 0 0 0 0 0 0 0 0 0 0 0 0 0 0 0 0 0 0 0 0 0 0 0 0 0 0 0 0 0 0 0 0 0 0 0 0 0 0 0 0 0 0
0 0 0 0 0 0 0 0 0 0 0 0 0 0 0 0 0 0 0 0 0 0 0 0 0 0 0 0 0 0 0 0 0 0 0 0 0 0 0 0 0 0 0 0 0 0 0 0 0
0 0 0 0 0 0 0 0 0 0 0 0 0 0 0 0 0 0 0 0 0 0 0 0 0 0 0 0 0 0 0 0 0 0 0 0 0 0 0 0 0 0 0 0 0 0 0 0 0
0 0 0 0 0 0 0 0 0 0 0 0 0 0 0 0 0 0 0 0 0 0 0 0 0 0 0 0 0 0 0 0 0 0 0 0 0 0 0 0 0 0 0 0 0 0 0 0 0
0 0 0 0 0 0 0 0 0 0 0 0 0 0 0 0 0 0 0 0 0 0 0 0 0 0 0 0 0 0 0 0 0 0 0 0 0 0 0 0 0 0 0 0 0 0 0 0 0
Wind_Speed
12 8 2 5 7 6 1 1 3 2 3 2 4 9 8 4 2 4 3 9 12 9 7 8 11 13 13 13 13 13 14 15 16 17 17 17 17 17 17 17 17 17 17 18 18 18 17 17 16
6 5 5 6 6 3 2 2 3 2 3 4 6 7 6 4 3 6 5 10 12 10 8 9 11 12 13 13 13 13 14 15 16 16 16 16 17 17 17 17 17 17 17 17 17 17 16 16 16
6 3 5 5 3 3 2 2 4 2 1 4 5 5 5 4 3 4 8 12 11 8 7 9 11 12 13 13 13 14 14 15 16 16 16 16 17 17 16 16 16 16 16 16 16 16 15 15 15
4 5 5 4 0 2 5 6 5 4 2 4 6 5 3 1 3 6 12 12 11 8 7 8 11 12 13 13 14 14 14 15 15 16 16 16 16 16 16 16 16 16 15 16 15 15 14 14 15
4 4 4 2 2 2 2 5 6 5 4 3 5 5 2 4 6 13 13 12 12 8 7 8 11 11 12 12 13 13 14 15 15 16 16 16 16 15 15 15 15 15 15 15 14 14 13 13 14
4 4 3 1 3 2 2 4 5 4 4 4 6 6 2 0 7 10 12 11 11 10 7 7 10 10 10 11 11 12 13 14 15 15 15 15 15 15 15 14 14 14 14 14 13 12 12 12 12
4 4 3 3 2 2 3 3 5 5 5 4 8 8 3 3 5 8 11 11 10 9 8 6 6 7 9 10 10 11 11 12 13 14 14 13 13 14 13 13 13 13 13 13 12 11 10 10 11
3 4 2 2 2 3 2 1 2 6 4 3 6 10 8 8 6 8 10 10 9 8 8 7 6 6 6 6 10 11 11 11 11 12 11 11 11 11 11 10 11 12 12 11 10 9 8 8 8
3 3 4 5 4 3 2 1 1 2 5 4 3 4 6 11 9 10 9 7 8 8 7 7 7 6 6 6 8 9 10 10 11 10 11 9 6 6 6 7 10 11 10 9 8 6 5 5 6
4 4 7 4 3 2 1 1 3 3 3 2 3 3 7 11 11 12 12 12 12 11 9 8 8 8 7 6 5 5 5 6 6 5 6 5 4 4 5 8 9 8 7 7 6 4 2 2 2
5 7 5 3 2 1 1 1 2 7 4 6 7 9 11 10 10 11 11 11 11 11 10 9 9 9 8 6 5 3 3 4 4 6 5 4 4 3 3 3 3 4 4 2 2 1 0 1 1
5 5 4 3 2 1 2 2 2 5 6 6 10 16 15 14 15 15 14 11 9 10 11 10 10 9 8 7 6 5 4 4 4 5 6 5 3 3 3 2 3 2 2 2 1 1 1 1 2
5 4 4 4 2 2 2 3 3 4 4 2 10 14 15 16 14 11 9 9 9 10 11 11 11 11 10 8 6 7 6 6 5 5 5 6 5 5 4 3 3 3 2 2 2 2 2 2 2
6 4 3 2 3 2 3 4 2 6 2 5 11 14 15 15 14 10 10 12 12 12 12 11 12 12 11 9 7 7 7 6 6 5 7 8 6 6 5 4 4 3 3 3 3 3 2 2 1
3 2 3 4 4 3 2 6 8 7 3 6 9 12 13 13 13 15 16 15 14 13 12 12 12 12 12 11 10 7 7 7 6 6 7 8 7 7 6 5 4 4 4 4 3 2 2 2 2
3 4 5 5 6 5 6 11 10 7 6 8 9 10 12 14 15 16 15 14 12 11 12 12 11 12 12 10 9 7 7 7 7 6 7 9 9 8 7 5 5 5 4 4 3 3 2 2 2
5 7 7 4 6 6 8 10 9 6 8 10 10 10 12 12 14 15 15 15 14 14 13 13 12 13 12 11 8 8 7 8 7 7 7 8 9 9 7 6 6 6 4 4 4 3 3 3 2
9 7 7 9 6 8 9 11 10 6 7 10 10 10 11 14 17 16 16 16 14 14 13 14 13 13 12 9 6 6 6 7 7 7 8 10 9 10 8 6 7 7 5 5 4 4 3 3 3
7 7 8 8 6 8 12 15 15 10 7 9 9 10 11 15 15 12 14 14 13 14 15 16 15 14 12 9 10 9 9 8 8 8 10 11 10 11 10 8 8 8 7 7 7 5 4 4 3
7 8 7 4 4 7 9 16 14 11 10 11 12 12 12 12 10 11 13 13 16 17 17 16 17 16 14 12 10 7 6 5 7 6 9 11 12 11 10 10 9 9 8 8 8 6 4 4 4
12 11 10 5 1 3 3 9 12 11 11 12 11 12 11 14 14 13 14 16 17 18 19 17 19 18 16 12 6 4 4 3 5 8 10 12 13 13 12 12 10 10 10 9 10 9 8 6 6
17 11 8 6 3 5 5 8 9 10 12 15 15 14 15 15 13 13 14 15 17 20 18 18 18 17 15 14 11 11 12 13 13 10 10 10 12 13 13 13 12 11 10 10 10 10 8 7 6
7 9 9 7 6 6 5 8 9 6 13 14 16 16 17 16 15 16 16 18 19 18 17 16 16 16 16 15 16 15 15 12 7 7 8 10 11 12 13 13 12 12 11 11 11 11 11 9 8
6 6 4 4 5 13 14 10 11 9 13 9 11 15 16 16 16 16 15 14 15 14 14 14 15 17 17 18 18 18 18 14 10 11 11 11 9 10 13 13 13 13 12 13 13 12 13 11 10
10 9 7 9 11 13 10 11 14 10 10 13 13 14 15 15 14 14 13 13 14 14 15 15 16 18 17 18 19 19 19 17 17 14 13 11 10 11 14 14 14 13 14 12 11 11 12 13 12
19 15 11 10 8 5 6 14 12 10 11 11 13 12 11 12 12 13 14 13 14 15 15 16 17 18 17 18 19 18 17 14 13 15 12 12 12 12 11 14 14 14 13 12 12 11 11 10 12
15 15 8 3 1 4 8 9 10 7 9 10 11 11 11 11 11 10 10 10 11 12 14 16 17 17 16 18 17 16 16 16 15 13 13 10 10 9 11 12 14 14 14 13 12 11 13 11 12
10 10 7 8 9 9 7 8 9 8 12 12 12 13 13 11 8 7 7 7 8 9 10 11 13 15 15 15 15 13 15 16 15 12 13 13 12 11 11 13 14 14 14 13 13 12 11 12 12
13 15 10 8 7 8 8 10 9 12 14 15 16 14 13 10 8 7 6 5 5 5 6 8 9 10 10 11 12 12 12 13 13 13 14 14 12 12 13 13 13 14 14 14 14 14 12 14 13
11 13 14 12 9 7 6 11 5 9 11 12 14 12 8 7 6 5 5 4 3 4 4 6 7 8 9 9 9 10 11 11 12 14 14 13 13 12 13 12 13 14 14 14 15 16 15 15 16
Wind_Direction
327 328 26 49 51 49 13 296 153 107 75 61 75 85 91 81 103 140 123 135 130 133 132 127 125 123 123 122 120 117 114 113 111 110 108 106 104 101 99 97 96 96 96 95 95 95 92 86 84
325 344 40 54 77 63 312 306 111 113 151 129 84 86 79 70 78 110 122 139 133 132 131 128 126 126 126 124 123 120 118 117 115 113 111 109 108 105 103 101 100 99 99 98 98 97 92 85 84
334 36 66 65 93 163 175 210 149 131 96 92 76 63 97 120 123 134 148 140 130 126 126 130 129 131 130 127 125 123 122 120 119 117 115 113 111 109 106 104 103 101 101 101 101 99 93 85 84
27 34 51 71 144 227 178 191 171 130 69 72 99 73 57 48 165 139 140 137 128 125 129 135 133 134 134 131 129 128 127 125 123 121 119 116 114 112 110 108 106 104 103 103 102 100 94 87 84
53 64 54 32 263 254 197 185 168 135 137 108 103 102 55 336 118 130 138 136 132 130 133 137 135 135 136 136 135 134 131 128 126 123 121 120 119 117 114 113 110 108 105 104 103 102 96 88 84
50 63 91 234 269 268 224 195 151 131 149 127 110 113 136 37 124 135 138 137 137 137 135 136 136 135 135 136 136 135 133 130 128 127 125 125 124 122 120 117 115 112 109 106 105 102 97 88 82
105 108 170 213 260 278 242 181 146 145 154 162 130 120 151 199 158 138 136 136 136 138 136 134 134 132 132 134 134 134 133 132 131 130 128 126 125 125 123 122 121 118 114 110 107 103 95 85 77
123 119 179 210 213 254 259 155 145 143 159 129 121 144 178 196 164 131 131 136 139 142 144 143 137 131 129 130 134 133 131 130 128 125 122 121 120 120 121 123 125 123 120 116 112 106 94 78 69
92 109 198 207 197 236 270 123 71 109 110 68 59 164 187 153 142 132 134 140 149 155 157 154 148 142 137 136 139 135 132 132 128 127 126 119 113 113 117 126 128 128 127 126 122 113 93 63 47
113 174 213 213 193 209 246 196 167 109 102 90 49 40 125 144 152 155 161 165 166 170 172 167 160 155 150 147 139 138 137 139 136 139 136 128 127 128 127 129 132 134 135 136 135 125 84 51 30
166 194 213 234 234 199 212 241 180 138 177 192 180 166 154 161 167 172 174 174 174 173 174 176 170 165 160 152 155 152 145 149 151 154 151 141 133 130 125 126 130 134 136 128 133 105 71 110 97
184 220 207 218 221 197 222 214 197 184 209 206 179 163 165 175 183 185 183 180 175 176 181 178 175 172 169 162 166 164 162 166 169 174 163 150 149 152 155 156 161 163 162 170 173 174 180 167 141
203 222 220 220 206 220 238 236 234 239 240 147 141 159 177 186 192 194 187 181 179 184 185 182 177 176 174 169 174 174 176 179 179 176 171 165 164 168 171 175 181 189 186 185 188 188 179 169 153
205 217 233 229 213 213 217 256 247 246 201 142 156 177 190 194 193 190 192 193 193 192 190 183 181 180 176 177 180 179 182 182 180 181 179 175 173 173 176 182 191 198 196 191 187 187 181 179 163
164 174 263 244 205 215 184 261 235 234 181 181 190 194 198 203 197 200 200 200 198 195 190 187 184 181 181 182 184 182 184 182 185 187 184 181 178 178 178 183 192 200 195 188 181 182 173 175 170
149 170 220 236 193 197 172 246 249 232 205 218 213 209 208 210 208 208 206 204 200 195 193 192 187 185 186 185 185 183 183 184 189 188 187 187 184 180 179 185 194 193 184 179 177 174 174 188 184
187 200 201 221 203 183 189 239 251 226 208 225 222 214 215 217 218 215 209 206 201 198 195 194 191 189 189 186 184 185 183 187 189 188 190 192 189 185 184 190 193 185 181 184 182 179 176 186 190
187 185 185 202 210 189 210 238 252 244 214 227 230 224 219 220 221 215 210 207 202 198 196 197 195 194 189 184 181 184 191 193 191 193 196 194 194 191 189 193 193 185 184 190 188 185 185 184 179
165 177 199 211 203 190 220 238 246 243 239 240 238 232 228 228 227 215 209 205 200 198 198 198 198 196 190 190 192 194 201 199 199 200 198 198 197 194 193 196 195 193 196 198 191 180 185 197 159
196 200 212 240 220 203 231 244 247 238 231 230 232 232 231 233 231 217 208 202 202 202 202 201 202 198 197 200 199 197 194 199 204 202 203 202 200 198 198 198 198 198 199 199 196 184 180 193 175
213 207 203 212 263 232 250 270 250 247 234 237 235 232 231 227 224 217 209 206 205 205 204 203 204 201 200 195 183 173 176 187 200 208 210 208 204 202 202 202 201 200 200 204 203 194 189 198 200
219 206 196 199 200 239 205 263 254 235 238 235 235 234 234 233 226 219 212 208 207 209 206 205 204 202 199 193 191 190 200 208 210 208 209 207 207 207 206 205 204 205 205 207 205 202 199 190 198
198 171 192 203 214 245 228 250 263 227 235 235 233 233 235 233 226 222 216 212 210 208 205 205 203 203 198 196 200 202 212 218 212 204 207 210 210 212 210 209 208 210 210 211 206 203 204 202 201
148 139 177 204 218 241 221 225 260 214 219 227 231 234 236 234 230 227 223 215 213 208 204 202 201 205 200 200 203 207 213 213 207 207 211 213 213 214 214 212 213 214 214 213 212 208 209 210 208
170 163 191 204 215 237 191 213 248 217 212 212 223 232 234 233 227 226 221 214 213 207 204 202 203 207 203 202 206 210 214 213 215 214 215 213 214 216 216 212 215 215 217 215 211 211 213 212 210
193 187 194 202 210 236 181 223 247 223 220 221 225 232 237 235 228 225 221 215 213 209 206 204 206 209 204 205 210 212 213 214 219 219 216 215 218 220 214 211 216 217 216 214 211 214 216 213 216
186 204 204 181 168 223 228 256 287 244 239 236 236 237 239 239 232 227 223 218 215 211 207 205 207 210 208 208 210 213 213 215 219 218 217 220 221 217 210 210 216 218 217 216 213 218 218 216 219
186 173 170 195 195 226 242 233 234 215 218 223 226 230 234 236 233 228 223 220 217 213 210 207 209 212 211 209 211 214 214 216 219 217 218 219 220 215 210 212 215 217 217 216 215 220 219 219 221
179 188 189 192 200 203 238 248 219 206 207 213 221 223 224 223 219 220 222 220 217 213 206 205 209 212 213 212 214 215 217 217 217 220 222 222 220 216 216 215 215 216 217 215 216 221 217 220 223
191 193 191 202 208 207 230 259 236 215 217 214 219 222 222 215 210 210 210 205 200 203 203 205 207 211 215 213 214 218 220 218 219 223 225 222 221 218 217 215 216 217 217 215 216 220 219 220 222